Location: Härggis
(46.9540°N, 8.4897°E)
Time: 20:03:52
(UTC+00:00)

Cosmos 1140 Rocket - Pass Details

Date: 27 May 2022
Orbit: 743 x 767 km, 74.1° (Epoch: 02 July)

Event Time Altitude Azimuth Distance (km) Brightness Sun altitude
Rises 02:15:07 0° 338° (NNW) 3,248 7.1 -11.5°
Reaches altitude 10° 02:17:30 10° 338° (NNW) 2,317 6.4 -11.3°
Maximum altitude 02:22:47 88° 67° (ENE) 774 3.5 -10.7°
Drops below altitude 10° 02:28:01 10° 159° (SSE) 2,296 5.7 -10.1°
Sets 02:30:22 0° 159° (SSE) 3,216 6.5 -9.8°
